Regional Weather Roundup
Issued by NWS

Home | Current Version | Previous Version | Graphics & Text | Print | Product List | Glossary On
Versions: 1 2 3 4 5 6 7 8 9 10 11 12 13 14 15 16 17 18 19 20 21 22 23 24 25 26 27 28 29 30 31 32 33 34 35 36 37 38 39 40 41 42 43 44 45 46 47 48 49 50
000
ASUS43 KTOP 152208
RWRKS

WEATHER ROUNDUP FOR KANSAS
NATIONAL WEATHER SERVICE GOODLAND KS
500 PM CDT MON SEP 15 2014

NOTE:  "FAIR" INDICATES FEW OR NO CLOUDS BELOW 12,000 FEET WITH NO
SIGNIFICANT WEATHER AND/OR OBSTRUCTIONS TO VISIBILITY.

KSZ001>006-013>018-027>032-041>047-152300-
NORTHWEST KANSAS

CITY           SKY/WX    TMP DP  RH WIND       PRES   REMARKS
GOODLAND       SUNNY     67  49  52 E5        30.28F
HAYS           SUNNY     70  54  56 N12G18    30.22S
HILL CITY      SUNNY     73  47  39 NE13      30.24S
RUSSELL        SUNNY     72  53  51 NE15      30.19F
$$

KSZ061>065-074>080-084>089-152300-
SOUTHWEST KANSAS

CITY           SKY/WX    TMP DP  RH WIND       PRES   REMARKS
DODGE CITY     CLOUDY    64  56  75 NE17      30.22S
ELKHART          N/A     58  54  87 N9          N/A
GARDEN CITY    CLOUDY    63  54  72 NE14      30.24S
GREAT BEND     CLOUDY    66  55  68 NE13      30.21S
LIBERAL        CLOUDY    63  54  72 N18       30.23S
PRATT          CLOUDY    64  55  72 NE15      30.19F
$$

KSZ066>073-081>083-090>101-152300-
SOUTHEAST KANSAS

CITY           SKY/WX    TMP DP  RH WIND       PRES   REMARKS
CHANUTE        LGT RAIN  76  65  68 N16G24    30.10R
COFFEYVILLE    MOSUNNY   87  67  51 SW14      30.05F
HUTCHINSON     CLOUDY    69  58  67 NE13G22   30.17S
MEDICINE LODGE   N/A     76  62  62 N20G25    30.13R
NEWTON         CLOUDY    68  57  68 N16       30.18S
PARSONS        TSTM      75  68  78 N9        30.09R
WICHITA INTL   MOSUNNY   76  63  64 N18G24    30.13R
WICHITA JABRA  PTSUNNY   72  62  71 N20       30.13S
WICHITA MCCONL MOSUNNY   75  64  68 N17G23    30.13R
WINFIELD       CLOUDY    83  65  54 N20       30.08S
$$

KSZ007>012-019>026-033>040-048>060-102>105-152300-
NORTHEAST KANSAS

CITY           SKY/WX    TMP DP  RH WIND       PRES   REMARKS
CONCORDIA      SUNNY     71  51  49 N18       30.21R
EMPORIA        CLOUDY    68  59  73 NE17      30.15S
LAWRENCE       CLOUDY    69  59  70 N6        30.15S
MANHATTAN      MOSUNNY   72  55  55 N10       30.17S
MARYSVILLE     MOSUNNY   68  52  56 N15       30.20S
OLATHE IND     CLOUDY    67  60  78 N14       30.15S
OLATHE EXE     CLOUDY    67  60  78 N14       30.14R
SALINA         CLOUDY    72  55  55 N13       30.18S
TOPEKA BILLARD CLOUDY    70  59  68 N12       30.16S
TOPEKA FORBES  CLOUDY    68  59  73 N9        30.16S
$$



USA.gov is the U.S. government's official web portal to all federal, state and local government web resources and services.